Location: Berville
(49.1893°N, 2.0748°E)
Time: 18:46:06
(UTC+00:00)

MOS 1-B - Pass Details

Date: 08 February 2023
Orbit: 904 x 913 km, 99.4° (Epoch: 30 March)

Event Time Altitude Azimuth Distance (km) Brightness Sun altitude
Rises 18:40:16 0° 164° (SSE) 3,530 7.3 -16.8°
Reaches altitude 10° 18:42:40 10° 165° (SSE) 2,593 6.6 -17.2°
Maximum altitude 18:48:28 84° 253° (WSW) 924 4.4 -18.1°
Drops below altitude 10° 18:54:20 10° 343° (NNW) 2,615 6.9 -19.1°
Sets 18:56:45 0° 344° (NNW) 3,562 7.6 -19.5°
